Location: Newark
(13.8117°N, 3.6025°W)
Time: 13:00:43
(UTC+00:00)

Vanguard 2 - Pass Details

Date: 30 August 2019
Orbit: 554 x 2937 km, 32.9° (Epoch: 22 October)

Event Time Altitude Azimuth Distance (km) Brightness Sun altitude
Rises 13:51:11 0° 317° (NW) 3,360 11.0 66.0°
Reaches altitude 10° 13:53:55 10° 334° (NNW) 2,687 10.6 65.3°
Maximum altitude 13:59:02 23° 25° (NNE) 2,391 10.2 64.1°
Drops below altitude 10° 14:06:16 10° 73° (ENE) 3,960 11.0 62.4°
Sets 14:11:24 0° 85° (E) 5,442 11.6 61.1°
